1486195200.41,39645,9.75,72686.5,-3.49,-14.51,-16.83,0,*5E
1486195201.61,39646,9.75,72684.8,-3.49,-14.65,-16.89,0,*50
1486195202.82,39647,9.75,72684.5,-3.49,-14.61,-16.89,0,*55
1486195204.05,39648,9.75,72688.3,-3.51,-14.65,-16.97,0,*58
1486195205.33,39649,9.75,72684.3,-3.51,-14.75,-17.03,0,*54
1486195206.57,39650,9.75,72688.5,-3.51,-14.61,-16.83,0,*50
1486195207.8,39651,9.75,72684.0,-3.51,-14.61,-16.83,0,*51
1486195209.07,39652,9.75,72686.3,-3.51,-14.51,-16.83,0,*51
1486195210.3,39653,9.75,72682.3,-3.51,-14.65,-16.83,0,*57
1486195211.53,39654,9.75,72686.0,-3.51,-14.65,-16.83,0,*50
1486195212.77,39655,9.75,72686.3,-3.51,-14.61,-16.83,0,*55
1486195214.04,39656,9.75,72684.3,-3.51,-14.47,-16.75,0,*5B
1486195215.31,39657,9.75,72686.3,-3.51,-14.47,-16.75,0,*5A
1486195216.52,39658,9.75,72686.3,-3.49,-14.33,-16.55,0,*5D
1486195217.74,39659,9.75,72686.0,-3.49,-14.37,-16.55,0,*58
1486195218.95,39660,9.75,72684.8,-3.49,-14.23,-16.41,0,*52
1486195220.17,39661,9.75,72684.5,-3.49,-14.19,-16.41,0,*5A
1486195221.4,39662,9.75,72686.5,-3.49,-14.19,-16.51,0,*58
1486195222.64,39663,9.75,72684.0,-3.47,-14.15,-16.37,0,*5B
1486195223.88,39664,9.75,72684.5,-3.49,-14.23,-16.51,0,*57
1486195225.09,39665,9.75,72690.8,-3.49,-14.19,-16.41,0,*5E
1486195226.33,39666,9.75,72686.5,-3.49,-14.11,-16.27,0,*55
1486195227.57,39667,9.75,72684.0,-3.49,-14.11,-16.27,0,*54
1486195228.81,39668,9.75,72684.8,-3.49,-14.11,-16.23,0,*5F
1486195230.07,39669,9.75,72688.5,-3.49,-14.05,-16.13,0,*58
1486195231.34,39670,9.75,72684.3,-3.49,-14.05,-16.23,0,*53
1486195232.6,39671,9.75,72684.5,-3.49,-14.05,-16.13,0,*51
1486195233.87,39672,9.75,72686.3,-3.49,-14.05,-16.13,0,*52
1486195235.14,39673,9.75,72686.0,-3.49,-14.05,-16.13,0,*53
1486195236.34,39674,9.75,72686.5,-3.49,-13.93,-15.99,0,*5D
1486195237.58,39675,9.75,72684.3,-3.49,-13.87,-15.95,0,*55
1486195238.84,39676,9.75,72686.5,-3.49,-13.87,-15.85,0,*57
1486195240.1,39677,9.75,72688.8,-3.49,-13.87,-15.85,0,*56
1486195241.39,39678,9.75,72684.0,-3.47,-13.83,-15.85,0,*53
1486195242.62,39679,9.75,72690.0,-3.47,-13.73,-15.71,0,*56
1486195243.83,39680,9.75,72686.5,-3.49,-13.65,-15.75,0,*5D
1486195245.09,39681,9.75,72686.0,-3.47,-13.69,-15.57,0,*5E
1486195246.34,39682,9.75,72686.8,-3.47,-13.55,-15.57,0,*52
1486195247.55,39683,9.75,72684.3,-3.49,-13.65,-15.67,0,*5D
1486195248.77,39684,9.75,72686.5,-3.49,-13.51,-15.53,0,*5A
1486195250.0,39685,9.75,72686.5,-3.47,-13.55,-15.49,0,*5A
1486195251.26,39686,9.75,72686.8,-3.47,-13.47,-15.43,0,*50
1486195252.51,39687,9.75,72688.3,-3.47,-13.43,-15.35,0,*54
1486195253.76,39688,9.75,72688.5,-3.49,-13.51,-15.39,0,*5A
1486195255.0,39689,9.75,72686.3,-3.45,-13.33,-15.29,0,*52
1486195256.21,39690,9.75,72688.0,-3.45,-13.43,-15.29,0,*5D
1486195257.45,39691,9.75,72684.3,-3.47,-13.43,-15.29,0,*5E
1486195258.68,39692,9.75,72684.3,-3.47,-13.43,-15.29,0,*5D
1486195259.92,39693,9.75,72688.8,-3.47,-13.43,-15.29,0,*5C
1486195261.17,39694,9.75,72688.8,-3.47,-13.43,-15.21,0,*53
1486195262.4,39695,9.75,72688.3,-3.45,-13.33,-15.15,0,*50
1486195263.61,39696,9.75,72686.8,-3.45,-13.43,-15.15,0,*54
1486195264.84,39697,9.75,72686.0,-3.45,-13.33,-15.15,0,*52
1486195266.07,39698,9.75,72688.0,-3.45,-13.19,-15.01,0,*50
1486195267.3,39699,9.75,72686.8,-3.45,-13.07,-14.93,0,*54
1486195268.53,39700,9.75,72684.3,-3.43,-13.11,-14.89,0,*5F
1486195269.8,39701,9.75,72688.0,-3.43,-13.23,-14.97,0,*50
1486195271.05,39702,9.75,72686.3,-3.45,-13.29,-15.01,0,*51
1486195272.29,39703,9.75,72686.0,-3.43,-13.11,-14.89,0,*5C
1486195273.52,39704,9.75,72686.8,-3.43,-13.11,-14.89,0,*5B
1486195274.78,39705,9.75,72686.8,-3.43,-13.11,-14.83,0,*50
1486195276.0,39706,9.75,72688.3,-3.45,-13.07,-14.75,0,*5B
1486195277.24,39707,9.75,72688.0,-3.43,-12.89,-14.65,0,*5A
1486195278.49,39708,9.75,72684.3,-3.45,-13.01,-14.75,0,*53
1486195279.75,39709,9.75,72688.0,-3.45,-13.01,-14.75,0,*52
1486195280.98,39710,9.75,72686.8,-3.43,-12.97,-14.65,0,*53
1486195282.22,39711,9.75,72688.3,-3.43,-12.97,-14.65,0,*52
1486195283.42,39712,9.75,72684.5,-3.45,-13.15,-14.61,0,*58
1486195284.67,39713,9.75,72686.5,-3.43,-12.97,-14.43,0,*54
1486195285.92,39714,9.75,72688.3,-3.43,-12.89,-14.43,0,*5C
1486195287.17,39715,9.75,72686.3,-3.43,-12.83,-14.37,0,*54
1486195288.4,39716,9.75,72686.5,-3.45,-12.89,-14.47,0,*5C
1486195289.64,39717,9.75,72688.0,-3.39,-12.75,-14.19,0,*5E
1486195290.89,39718,9.75,72684.5,-3.43,-12.79,-14.23,0,*59
1486195292.14,39719,9.75,72686.8,-3.43,-12.83,-14.29,0,*57
1486195293.38,39720,9.75,72686.5,-3.39,-12.79,-14.23,0,*5F
1486195294.63,39721,9.75,72690.5,-3.43,-12.79,-14.23,0,*53
1486195295.84,39722,9.75,72684.0,-3.45,-12.93,-14.33,0,*53
1486195297.06,39723,9.75,72686.5,-3.39,-12.83,-14.19,0,*50
1486195298.29,39724,9.75,72688.3,-3.39,-12.75,-14.11,0,*56
1486195299.55,39725,9.75,72686.5,-3.43,-12.71,-14.15,0,*5A
1486195300.78,39726,9.75,72684.0,-3.39,-12.79,-14.11,0,*58
1486195302.03,39727,9.75,72686.0,-3.43,-12.83,-14.15,0,*55
1486195303.29,39728,9.75,72684.5,-3.43,-12.71,-14.15,0,*57
1486195304.54,39729,9.75,72684.8,-3.39,-12.61,-14.05,0,*5B
1486195305.8,39730,9.75,72684.8,-3.39,-12.65,-14.05,0,*57
1486195307.05,39731,9.75,72686.0,-3.39,-12.79,-13.97,0,*57
1486195308.31,39732,9.75,72686.8,-3.39,-12.79,-14.05,0,*58
1486195309.57,39733,9.75,72684.0,-3.39,-12.65,-13.97,0,*58
1486195310.83,39734,9.75,72684.8,-3.39,-12.65,-13.97,0,*5F
1486195312.09,39735,9.75,72684.3,-3.39,-12.75,-14.05,0,*53
1486195313.35,39736,9.75,72686.5,-3.39,-12.75,-13.97,0,*5C
1486195314.6,39737,9.75,72684.5,-3.39,-12.61,-13.83,0,*5D
1486195315.85,39738,9.75,72688.5,-3.39,-12.65,-13.83,0,*56
1486195317.1,39739,9.75,72688.3,-3.39,-12.61,-13.83,0,*53
1486195318.33,39740,9.75,72690.5,-3.39,-12.53,-13.73,0,*53
1486195319.55,39741,9.69,72682.8,-3.39,-12.65,-13.73,0,*57
1486195320.8,39742,9.75,72690.8,-3.39,-12.61,-13.83,0,*5F
1486195322.06,39743,9.75,72688.3,-3.37,-12.61,-13.65,0,*58
1486195323.32,39744,9.75,72688.5,-3.37,-12.53,-13.65,0,*5E
1486195324.57,39745,9.75,72684.8,-3.43,-12.57,-13.65,0,*58
1486195325.83,39746,9.75,72686.0,-3.37,-12.47,-13.61,0,*5D
1486195327.03,39747,9.75,72686.0,-3.39,-12.39,-13.47,0,*5F
1486195328.28,39748,9.75,72690.5,-3.39,-12.35,-13.37,0,*5B
1486195329.54,39749,9.75,72684.5,-3.37,-12.39,-13.33,0,*5C
1486195330.83,39750,9.75,72686.3,-3.37,-12.35,-13.37,0,*5C
1486195332.11,39751,9.75,72686.5,-3.37,-12.35,-13.37,0,*5D
1486195333.37,39752,9.75,72684.0,-3.37,-12.35,-13.23,0,*5B
1486195334.61,39753,9.75,72690.0,-3.37,-12.39,-13.23,0,*56
1486195335.87,39754,9.75,72686.8,-3.39,-12.35,-13.33,0,*52
1486195337.1,39755,9.75,72686.8,-3.37,-12.39,-13.23,0,*50
1486195338.32,39756,9.75,72684.5,-3.35,-12.21,-13.19,0,*51
1486195339.55,39757,9.75,72688.3,-3.35,-12.29,-13.19,0,*58
1486195340.79,39758,9.75,72686.3,-3.35,-12.15,-13.19,0,*58
1486195342.0,39759,9.75,72686.5,-3.35,-12.29,-13.15,0,*5A
1486195343.22,39760,9.75,72684.5,-3.35,-12.21,-13.15,0,*58
1486195344.45,39761,9.75,72686.8,-3.35,-12.15,-13.15,0,*5E
1486195345.67,39762,9.75,72688.0,-3.35,-12.21,-13.07,0,*59
1486195346.9,39763,9.75,72686.0,-3.33,-12.29,-13.15,0,*55
1486195348.14,39764,9.75,72686.8,-3.33,-12.29,-13.15,0,*52
1486195349.41,39765,9.75,72686.0,-3.33,-12.35,-13.19,0,*52
1486195350.67,39766,9.75,72686.0,-3.33,-12.35,-13.15,0,*5D
1486195351.9,39767,9.75,72688.3,-3.33,-12.29,-13.15,0,*51
1486195353.15,39768,9.75,72686.3,-3.35,-12.35,-13.19,0,*59
1486195354.39,39769,9.75,72686.3,-3.33,-12.21,-13.07,0,*54
1486195355.6,39770,9.75,72688.5,-3.35,-12.21,-13.07,0,*5A
1486195356.82,39771,9.75,72684.8,-3.35,-12.21,-13.07,0,*5B
1486195358.06,39772,9.75,72688.0,-3.33,-12.21,-13.07,0,*5E
1486195359.32,39773,9.75,72684.8,-3.33,-12.15,-13.07,0,*58
1486195360.58,39774,9.75,72688.0,-3.33,-12.15,-13.07,0,*5F
1486195361.86,39775,9.75,72686.5,-3.33,-12.15,-13.01,0,*58
1486195363.12,39776,9.75,72688.3,-3.33,-12.21,-13.01,0,*5C
1486195364.36,39777,9.75,72688.0,-3.29,-12.25,-12.97,0,*5C
1486195365.59,39778,9.75,72686.8,-3.27,-12.15,-12.97,0,*5E
1486195366.85,39779,9.75,72686.3,-3.29,-12.11,-12.97,0,*55
1486195368.09,39780,9.75,72684.8,-3.27,-12.11,-12.89,0,*52
1486195369.37,39781,9.75,72690.0,-3.29,-12.11,-12.83,0,*57
1486195370.6,39782,9.75,72686.5,-3.27,-12.11,-12.89,0,*50
1486195371.86,39783,9.75,72684.5,-3.29,-12.11,-12.89,0,*5F
1486195373.1,39784,9.69,72682.8,-3.27,-12.11,-12.89,0,*56
1486195374.36,39785,9.75,72686.3,-3.29,-12.11,-12.97,0,*56
1486195375.62,39786,9.75,72686.3,-3.29,-12.11,-12.97,0,*55
1486195376.85,39787,9.75,72688.3,-3.27,-12.15,-12.97,0,*5E
1486195378.11,39788,9.75,72688.5,-3.29,-12.11,-12.89,0,*54
1486195379.34,39789,9.75,72688.5,-3.27,-12.15,-12.97,0,*50
1486195380.55,39790,9.75,72688.0,-3.27,-12.29,-12.97,0,*57
1486195381.79,39791,9.75,72684.5,-3.29,-12.25,-12.97,0,*54
1486195383.05,39792,9.75,72688.0,-3.29,-12.11,-12.89,0,*5F
1486195384.31,39793,9.75,72686.3,-3.29,-12.15,-12.97,0,*55
1486195385.54,39794,9.75,72690.3,-3.27,-12.15,-12.97,0,*5C
1486195386.8,39795,9.75,72686.3,-3.29,-12.15,-12.97,0,*53
1486195388.09,39796,9.75,72690.0,-3.29,-12.11,-12.75,0,*58
1486195389.35,39797,9.69,72684.5,-3.27,-12.11,-12.83,0,*5E
1486195390.63,39798,9.75,72690.5,-3.29,-12.11,-12.75,0,*56
1486195391.89,39799,9.75,72686.5,-3.27,-12.11,-12.75,0,*59
1486195393.13,39800,9.75,72688.0,-3.27,-12.03,-12.75,0,*55
1486195394.39,39801,9.75,72686.8,-3.29,-12.03,-12.71,0,*5E
1486195395.64,39802,9.75,72688.8,-3.27,-11.97,-12.65,0,*58
1486195396.87,39803,9.75,72690.0,-3.27,-12.03,-12.75,0,*56
1486195398.11,39804,9.75,72686.8,-3.27,-12.03,-12.75,0,*51
1486195399.39,39805,9.75,72686.3,-3.29,-11.97,-12.71,0,*54
1486195400.65,39806,9.75,72688.5,-3.27,-11.97,-12.65,0,*5C
1486195401.87,39807,9.75,72686.5,-3.27,-12.03,-12.65,0,*53
1486195403.11,39808,9.75,72686.3,-3.27,-12.03,-12.71,0,*59
1486195404.36,39809,9.75,72684.8,-3.27,-11.97,-12.65,0,*53
1486195405.59,39810,9.75,72688.3,-3.27,-12.03,-12.71,0,*50
1486195406.86,39811,9.75,72686.5,-3.29,-12.03,-12.71,0,*5F
1486195408.11,39812,9.75,72686.3,-3.27,-11.97,-12.57,0,*58
1486195409.35,39813,9.75,72684.5,-3.27,-12.03,-12.71,0,*53
1486195410.63,39814,9.75,72686.0,-3.25,-11.97,-12.61,0,*59
1486195411.91,39815,9.75,72686.0,-3.25,-11.97,-12.65,0,*5C
1486195413.16,39816,9.75,72688.0,-3.27,-11.97,-12.65,0,*5D
1486195414.41,39817,9.75,72686.5,-3.27,-11.89,-12.65,0,*53
1486195415.64,39818,9.75,72688.3,-3.27,-12.03,-12.65,0,*5D
1486195416.87,39819,9.75,72686.3,-3.23,-11.93,-12.47,0,*52
1486195418.14,39820,9.75,72684.8,-3.25,-11.93,-12.47,0,*5E
1486195419.43,39821,9.75,72686.8,-3.25,-11.93,-12.53,0,*5A
1486195420.72,39822,9.75,72688.3,-3.25,-11.93,-12.53,0,*59
1486195422.0,39823,9.75,72686.0,-3.25,-11.97,-12.61,0,*5D
1486195423.3,39824,9.75,72684.8,-3.25,-11.93,-12.53,0,*5F
1486195424.58,39825,9.75,72686.8,-3.25,-11.93,-12.61,0,*5F
1486195425.87,39826,9.75,72684.5,-3.25,-11.85,-12.53,0,*5A
1486195427.12,39827,9.75,72686.8,-3.23,-11.81,-12.57,0,*5D
1486195428.4,39828,9.75,72688.5,-3.25,-11.97,-12.65,0,*52
1486195429.69,39829,9.75,72688.0,-3.25,-11.93,-12.61,0,*53
1486195430.94,39830,9.75,72684.0,-3.23,-11.81,-12.57,0,*5B
1486195432.23,39831,9.75,72688.8,-3.25,-11.93,-12.61,0,*5A
1486195433.48,39832,9.75,72686.8,-3.23,-11.89,-12.57,0,*51
1486195434.77,39833,9.75,72688.0,-3.25,-11.85,-12.53,0,*5E
1486195436.05,39834,9.75,72690.0,-3.25,-11.85,-12.61,0,*58
1486195437.34,39835,9.75,72690.5,-3.25,-11.93,-12.61,0,*5E
1486195438.63,39836,9.75,72690.8,-3.25,-11.93,-12.57,0,*58
1486195439.91,39837,9.75,72690.3,-3.25,-11.93,-12.65,0,*58
1486195441.17,39838,9.75,72688.3,-3.25,-11.85,-12.47,0,*50
1486195442.43,39839,9.75,72684.5,-3.25,-11.77,-12.47,0,*5C
1486195443.68,39840,9.75,72686.0,-3.25,-11.81,-12.47,0,*5B
1486195444.93,39841,9.75,72686.3,-3.23,-11.81,-12.57,0,*5D
1486195446.17,39842,9.75,72690.8,-3.23,-11.77,-12.47,0,*56
1486195447.45,39843,9.75,72688.0,-3.25,-11.77,-12.53,0,*54
1486195448.71,39844,9.75,72686.3,-3.25,-11.77,-12.47,0,*56
1486195449.94,39845,9.75,72688.0,-3.23,-11.63,-12.43,0,*50
1486195451.18,39846,9.75,72688.5,-3.23,-11.63,-12.43,0,*53
1486195452.4,39847,9.75,72688.3,-3.23,-11.73,-12.43,0,*53
1486195453.63,39848,9.75,72688.8,-3.23,-11.73,-12.43,0,*5C
1486195454.92,39849,9.75,72684.8,-3.25,-11.77,-12.53,0,*5E
1486195456.15,39850,9.75,72688.3,-3.23,-11.63,-12.47,0,*50
1486195457.39,39851,9.75,72688.8,-3.23,-11.63,-12.43,0,*55
1486195458.65,39852,9.75,72686.0,-3.23,-11.59,-12.35,0,*5E
1486195459.91,39853,9.75,72686.8,-3.25,-11.63,-12.29,0,*5D
1486195461.14,39854,9.75,72686.8,-3.23,-11.59,-12.43,0,*59
1486195462.43,39855,9.75,72684.5,-3.25,-11.55,-12.35,0,*53
1486195463.66,39856,9.75,72686.8,-3.23,-11.51,-12.29,0,*5F
1486195464.93,39857,9.75,72688.8,-3.25,-11.63,-12.39,0,*58
1486195466.21,39858,9.75,72688.0,-3.25,-11.55,-12.35,0,*5E
1486195467.47,39859,9.75,72686.3,-3.25,-11.51,-12.25,0,*5A
1486195468.68,39860,9.75,72684.0,-3.23,-11.45,-12.29,0,*5F
1486195469.92,39861,9.75,72686.5,-3.25,-11.41,-12.21,0,*54
1486195471.18,39862,9.75,72686.3,-3.23,-11.33,-12.07,0,*50
1486195472.44,39863,9.75,72684.0,-3.23,-11.33,-12.15,0,*52
1486195473.67,39864,9.75,72684.0,-3.23,-11.23,-12.15,0,*54
1486195474.92,39865,9.75,72684.0,-3.21,-11.19,-12.15,0,*5E
1486195476.13,39866,9.75,72686.8,-3.19,-11.15,-12.03,0,*5D
1486195477.41,39867,9.75,72686.5,-3.21,-11.33,-12.15,0,*54
1486195478.66,39868,9.75,72686.0,-3.21,-11.45,-12.29,0,*55
1486195479.87,39869,9.75,72686.8,-3.23,-11.23,-12.21,0,*5E
1486195481.1,39870,9.75,72688.8,-3.23,-11.23,-12.07,0,*52
1486195482.37,39871,9.69,72684.3,-3.23,-11.07,-11.93,0,*5B
1486195483.63,39872,9.75,72684.5,-3.23,-11.07,-11.93,0,*58
1486195484.89,39873,9.75,72684.0,-3.23,-11.07,-11.93,0,*59
1486195486.12,39874,9.75,72686.5,-3.23,-11.07,-12.03,0,*54
1486195487.39,39875,9.75,72686.8,-3.23,-11.07,-11.93,0,*5F
1486195488.68,39876,9.75,72686.3,-3.21,-11.07,-11.93,0,*5E
1486195489.94,39877,9.75,72686.3,-3.21,-11.07,-12.03,0,*55
1486195491.18,39878,9.75,72688.5,-3.19,-10.89,-11.89,0,*57
1486195492.44,39879,9.75,72686.8,-3.21,-10.93,-11.81,0,*5E
1486195493.66,39880,9.75,72690.5,-3.19,-10.85,-11.77,0,*5D
1486195494.89,39881,9.75,72690.3,-3.19,-10.85,-11.77,0,*5C
1486195496.18,39882,9.75,72688.5,-3.21,-10.79,-11.73,0,*53
1486195497.44,39883,9.75,72684.8,-3.19,-10.75,-11.67,0,*50
1486195498.69,39884,9.75,72686.5,-3.21,-10.89,-11.81,0,*57
1486195499.96,39885,9.75,72684.0,-3.21,-10.97,-11.93,0,*5A
1486195501.19,39886,9.75,72684.0,-3.19,-10.93,-11.97,0,*52
1486195502.45,39887,9.75,72686.3,-3.21,-10.93,-11.81,0,*5F
1486195503.74,39888,9.75,72688.3,-3.21,-10.75,-11.73,0,*55
1486195505.03,39889,9.75,72684.3,-3.21,-10.67,-11.73,0,*57
1486195506.26,39890,9.75,72684.5,-3.19,-10.57,-11.59,0,*5F
1486195507.51,39891,9.75,72686.8,-3.21,-10.53,-11.59,0,*51
1486195508.75,39892,9.75,72684.0,-3.19,-10.49,-11.55,0,*5E
1486195510.01,39893,9.75,72684.8,-3.19,-10.63,-11.67,0,*56
1486195511.27,39894,9.75,72690.0,-3.19,-10.75,-11.73,0,*53
1486195512.5,39895,9.75,72686.3,-3.19,-10.49,-11.55,0,*59
1486195513.74,39896,9.75,72688.3,-3.19,-10.57,-11.59,0,*59
1486195514.97,39897,9.75,72686.0,-3.19,-10.49,-11.55,0,*5B
1486195516.2,39898,9.69,72682.3,-3.19,-10.45,-11.55,0,*58
1486195517.43,39899,9.75,72684.5,-3.19,-10.49,-11.67,0,*54
1486195518.67,39900,9.75,72686.5,-3.19,-10.49,-11.59,0,*58
1486195519.88,39901,9.75,72684.8,-3.19,-10.31,-11.41,0,*5F
1486195521.1,39902,9.75,72684.5,-3.19,-10.31,-11.33,0,*59
1486195522.34,39903,9.75,72686.3,-3.19,-10.31,-11.29,0,*53
1486195523.59,39904,9.75,72686.0,-3.17,-10.31,-11.33,0,*51
1486195524.82,39905,9.75,72686.0,-3.17,-10.23,-11.19,0,*5B
1486195526.05,39906,9.75,72684.3,-3.17,-10.23,-11.19,0,*58
1486195527.29,39907,9.69,72684.3,-3.13,-10.19,-11.15,0,*58
1486195528.55,39908,9.75,72686.8,-3.17,-10.19,-11.29,0,*5C
1486195529.79,39909,9.75,72686.0,-3.17,-10.35,-11.45,0,*59
1486195531.02,39910,9.75,72686.0,-3.17,-10.31,-11.41,0,*51
1486195532.26,39911,9.75,72686.5,-3.17,-10.31,-11.41,0,*50
1486195533.49,39912,9.75,72688.3,-3.17,-10.31,-11.41,0,*53
1486195534.75,39913,9.75,72688.5,-3.17,-10.35,-11.51,0,*57
1486195535.99,39914,9.75,72686.5,-3.17,-10.31,-11.45,0,*51
1486195537.22,39915,9.75,72684.3,-3.13,-10.15,-11.15,0,*57
1486195538.45,39916,9.75,72688.3,-3.17,-10.23,-11.19,0,*59
1486195539.68,39917,9.75,72686.8,-3.17,-10.05,-11.19,0,*5C
1486195540.9,39918,9.75,72686.8,-3.17,-10.05,-11.19,0,*53
1486195542.13,39919,9.75,72686.3,-3.17,-10.19,-11.19,0,*5F
1486195543.36,39920,9.75,72686.5,-3.17,-10.09,-11.19,0,*54
1486195544.57,39921,9.75,72684.0,-3.13,-9.89,-11.11,0,*69
1486195545.8,39922,9.75,72686.0,-3.13,-10.01,-11.15,0,*56
1486195547.03,39923,9.75,72688.0,-3.17,-9.93,-11.01,0,*65
1486195548.25,39924,9.75,72690.5,-3.17,-10.05,-11.15,0,*50
1486195549.5,39925,9.75,72686.3,-3.17,-9.97,-11.07,0,*61
1486195550.75,39926,9.69,72684.5,-3.17,-9.97,-11.07,0,*62
1486195551.97,39927,9.75,72686.8,-3.13,-9.89,-11.01,0,*6E
1486195553.19,39928,9.75,72686.0,-3.17,-9.89,-11.01,0,*65
1486195554.42,39929,9.75,72690.3,-3.17,-9.79,-10.93,0,*61
1486195555.64,39930,9.75,72686.3,-3.17,-9.89,-11.01,0,*6C
1486195556.87,39931,9.75,72686.8,-3.17,-9.79,-10.93,0,*68
1486195558.09,39932,9.75,72690.0,-3.17,-9.89,-11.01,0,*6E
1486195559.32,39933,9.75,72686.0,-3.13,-9.75,-10.89,0,*69
1486195560.54,39934,9.75,72688.8,-3.13,-9.89,-11.11,0,*6D
1486195561.77,39935,9.75,72686.3,-3.13,-9.75,-10.97,0,*60
1486195563.01,39936,9.75,72690.3,-3.17,-9.89,-11.07,0,*6C
1486195564.27,39937,9.75,72688.5,-3.13,-9.61,-10.97,0,*67
1486195565.49,39938,9.75,72684.5,-3.17,-9.67,-10.89,0,*65
1486195566.77,39939,9.75,72688.8,-3.13,-9.49,-10.67,0,*6C
1486195568.03,39940,9.75,72690.3,-3.17,-9.49,-10.57,0,*65
1486195569.31,39941,9.75,72684.0,-3.17,-9.49,-10.63,0,*63
1486195570.56,39942,9.75,72684.5,-3.13,-9.45,-10.53,0,*6B
1486195571.82,39943,9.75,72686.3,-3.17,-9.41,-10.49,0,*61
1486195573.08,39944,9.75,72690.8,-3.13,-9.23,-10.41,0,*6E
1486195574.37,39945,9.75,72690.0,-3.13,-9.11,-10.41,0,*6E
1486195575.63,39946,9.75,72686.5,-3.13,-9.23,-10.41,0,*6C
1486195576.86,39947,9.75,72688.8,-3.13,-9.19,-10.31,0,*63
1486195578.09,39948,9.69,72682.5,-3.13,-9.31,-10.31,0,*66
1486195579.35,39949,9.75,72686.3,-3.13,-9.23,-10.41,0,*63
1486195580.61,39950,9.75,72686.8,-3.13,-9.19,-10.41,0,*62
1486195581.87,39951,9.75,72684.5,-3.13,-9.19,-10.41,0,*63
1486195583.14,39952,9.75,72686.0,-3.13,-9.11,-10.27,0,*68
1486195584.4,39953,9.75,72686.8,-3.13,-9.11,-10.27,0,*69
1486195585.66,39954,9.75,72688.5,-3.13,-9.11,-10.27,0,*6E
1486195586.9,39955,9.75,72686.0,-3.13,-9.05,-10.19,0,*67
1486195588.14,39956,9.75,72686.0,-3.13,-9.19,-10.31,0,*63
1486195589.37,39957,9.75,72684.5,-3.13,-9.19,-10.31,0,*62
1486195590.6,39958,9.75,72690.8,-3.13,-9.31,-10.45,0,*64
1486195591.84,39959,9.69,72686.0,-3.11,-9.11,-10.27,0,*61
1486195593.06,39960,9.75,72686.5,-3.11,-8.93,-10.15,0,*61
1486195594.29,39961,9.75,72688.8,-3.09,-8.85,-9.97,0,*5C
1486195595.5,39962,9.75,72684.3,-3.11,-8.93,-10.01,0,*66
1486195596.71,39963,9.75,72686.3,-3.11,-8.93,-10.05,0,*63
1486195597.93,39964,9.75,72690.3,-3.11,-8.89,-10.01,0,*6B
1486195599.15,39965,9.75,72684.8,-3.11,-9.01,-10.19,0,*62
1486195600.36,39966,9.75,72688.8,-3.11,-9.01,-10.19,0,*61
1486195601.6,39967,9.75,72688.3,-3.09,-8.85,-9.97,0,*5A
1486195602.8,39968,9.75,72686.8,-3.11,-8.89,-9.93,0,*54
1486195604.05,39969,9.75,72686.8,-3.11,-8.81,-9.83,0,*5C
1486195605.26,39970,9.75,72688.5,-3.11,-8.93,-10.05,0,*61
1486195606.48,39971,9.75,72684.5,-3.11,-8.81,-9.93,0,*54
1486195607.68,39972,9.75,72686.3,-3.11,-8.75,-9.93,0,*5C
1486195608.91,39973,9.75,72686.3,-3.11,-8.81,-10.01,0,*65
1486195610.14,39974,9.75,72688.3,-3.11,-8.75,-9.83,0,*5B
1486195611.34,39975,9.75,72684.8,-3.11,-8.63,-9.79,0,*58
1486195612.56,39976,9.75,72686.5,-3.11,-8.81,-9.93,0,*53
1486195613.76,39977,9.75,72690.3,-3.11,-8.63,-9.71,0,*52
1486195614.98,39978,9.75,72688.8,-3.11,-8.63,-9.57,0,*59
1486195616.27,39979,9.75,72686.3,-3.09,-8.51,-9.53,0,*54
1486195617.55,39980,9.75,72686.0,-3.09,-8.51,-9.53,0,*52
1486195618.8,39981,9.75,72688.8,-3.09,-8.45,-9.53,0,*56
1486195620.08,39982,9.75,72684.5,-3.09,-8.51,-9.53,0,*50
1486195621.33,39983,9.69,72684.3,-3.09,-8.59,-9.57,0,*5D
1486195622.61,39984,9.75,72684.3,-3.09,-8.51,-9.53,0,*56
1486195623.89,39985,9.75,72686.5,-3.09,-8.51,-9.53,0,*57
1486195625.14,39986,9.75,72688.5,-3.09,-8.45,-9.41,0,*52
1486195626.36,39987,9.75,72684.0,-3.09,-8.37,-9.31,0,*51
1486195627.6,39988,9.75,72684.8,-3.09,-8.33,-9.41,0,*5D
1486195628.85,39989,9.75,72686.0,-3.09,-8.33,-9.41,0,*5C
1486195630.1,39990,9.75,72688.5,-3.09,-8.37,-9.41,0,*50
1486195631.35,39991,9.75,72686.5,-3.09,-8.37,-9.41,0,*51
1486195632.63,39992,9.75,72688.0,-3.09,-8.51,-9.45,0,*56
1486195633.86,39993,9.75,72686.8,-3.07,-8.45,-9.45,0,*5C
1486195635.08,39994,9.69,72686.0,-3.07,-8.45,-9.45,0,*5B
1486195636.27,39995,9.75,72686.3,-3.07,-8.33,-9.31,0,*58
1486195637.46,39996,9.75,72686.8,-3.07,-8.33,-9.31,0,*5B
1486195638.66,39997,9.75,72684.3,-3.07,-8.25,-9.27,0,*5A
1486195639.88,39998,9.75,72690.3,-3.07,-8.33,-9.41,0,*52
1486195641.07,39999,9.75,72688.5,-3.07,-8.33,-9.27,0,*53
1486195642.29,40000,9.69,72684.5,-3.05,-8.17,-9.27,0,*50
1486195643.51,40001,9.75,72688.8,-3.05,-8.29,-9.27,0,*5C
1486195644.7,40002,9.75,72686.0,-3.07,-8.33,-9.27,0,*56
1486195645.9,40003,9.69,72684.5,-3.07,-8.25,-9.19,0,*5D
1486195647.11,40004,9.75,72688.8,-3.05,-8.33,-9.27,0,*52
1486195648.33,40005,9.69,72686.5,-3.07,-8.21,-9.15,0,*53
1486195649.53,40006,9.75,72690.3,-3.07,-8.25,-9.19,0,*58
1486195650.77,40007,9.75,72690.8,-3.05,-8.03,-9.01,0,*56
1486195652.0,40008,9.75,72688.3,-3.07,-8.07,-9.05,0,*5B
1486195653.19,40009,9.75,72684.5,-3.07,-8.21,-9.05,0,*5E
1486195654.42,40010,9.75,72684.3,-3.07,-8.07,-9.01,0,*56
1486195655.67,40011,9.75,72684.8,-3.05,-7.91,-8.93,0,*5F
1486195656.91,40012,9.75,72684.8,-3.05,-7.99,-8.85,0,*53
1486195658.15,40013,9.75,72688.8,-3.05,-7.99,-8.93,0,*55
1486195659.37,40014,9.75,72692.5,-3.05,-8.17,-8.97,0,*5F
1486195660.62,40015,9.75,72688.5,-3.05,-7.99,-8.97,0,*57
1486195661.86,40016,9.75,72688.0,-3.05,-7.99,-8.93,0,*50
1486195663.08,40017,9.75,72686.3,-3.07,-8.11,-8.97,0,*58
1486195664.34,40018,9.75,72684.3,-3.05,-7.91,-8.81,0,*55
1486195665.59,40019,9.75,72686.0,-3.05,-7.91,-8.85,0,*50
1486195666.8,40020,9.75,72684.8,-3.07,-8.03,-8.97,0,*5F
1486195668.05,40021,9.75,72688.3,-3.05,-8.07,-8.97,0,*58
1486195669.31,40022,9.75,72688.0,-3.05,-7.91,-8.81,0,*5C
1486195670.55,40023,9.75,72688.0,-3.05,-7.91,-8.85,0,*59
1486195671.79,40024,9.75,72688.3,-3.05,-7.77,-8.67,0,*5A
1486195673.05,40025,9.75,72688.0,-3.05,-8.03,-8.81,0,*5F
1486195674.26,40026,9.75,72684.8,-3.07,-7.91,-8.75,0,*51
1486195675.51,40027,9.75,72684.8,-3.05,-7.91,-8.85,0,*5D
1486195676.75,40028,9.75,72686.8,-3.05,-7.99,-8.85,0,*5A
1486195677.99,40029,9.75,72684.3,-3.05,-8.03,-8.93,0,*50
1486195679.25,40030,9.75,72688.3,-3.05,-7.91,-8.81,0,*5F
1486195680.49,40031,9.75,72690.5,-3.05,-7.91,-8.71,0,*51
1486195681.75,40032,9.75,72686.8,-3.05,-7.99,-8.81,0,*55
1486195682.96,40033,9.75,72686.3,-3.05,-7.87,-8.67,0,*53
1486195684.19,40034,9.75,72686.5,-3.05,-7.91,-8.67,0,*53
1486195685.41,40035,9.75,72684.8,-3.07,-7.95,-8.71,0,*53
1486195686.65,40036,9.75,72686.0,-3.05,-7.99,-8.93,0,*52
1486195687.91,40037,9.75,72686.3,-3.05,-8.03,-8.81,0,*5C
1486195689.12,40038,9.75,72688.5,-3.05,-7.87,-8.67,0,*58
1486195690.33,40039,9.75,72686.5,-3.05,-7.87,-8.67,0,*59
1486195691.54,40040,9.75,72686.8,-3.05,-7.87,-8.67,0,*57
1486195692.81,40041,9.75,72686.8,-3.05,-8.07,-8.81,0,*59
1486195694.04,40042,9.75,72684.3,-3.05,-8.03,-8.67,0,*56
1486195695.23,40043,9.69,72686.0,-3.07,-7.83,-8.63,0,*56
1486195696.47,40044,9.69,72686.0,-3.05,-7.77,-8.59,0,*51
1486195697.71,40045,9.69,72684.3,-3.05,-7.77,-8.59,0,*50
1486195698.94,40046,9.75,72686.8,-3.05,-7.77,-8.59,0,*53
1486195700.19,40047,9.75,72686.8,-3.05,-7.77,-8.45,0,*5F
1486195701.44,40048,9.75,72686.8,-3.05,-7.73,-8.45,0,*54
1486195702.68,40049,9.75,72688.0,-3.05,-7.73,-8.55,0,*54
1486195703.89,40050,9.75,72688.3,-3.05,-7.87,-8.55,0,*57
1486195705.13,40051,9.75,72688.8,-3.05,-7.77,-8.59,0,*55
1486195706.37,40052,9.75,72684.0,-3.05,-7.77,-8.45,0,*5B
1486195707.61,40053,9.69,72684.8,-3.05,-7.77,-8.55,0,*5B
1486195708.84,40054,9.69,72684.5,-3.05,-7.77,-8.55,0,*5C
1486195710.06,40055,9.75,72690.3,-3.05,-7.87,-8.59,0,*5E